GSAT0217 (GALILEO 21)

Last updated on Oct. 30, 2020, 5:56 a.m. UTC

1 43057U 17079C   20302.79260846 -.00000029  00000-0  00000+0 0  9993
2 43057  56.1686 278.1360 0005518 284.4016  75.5091  1.70473933 17916
UTC
Height (km)
Latitude
Longitude
Inclination
Orbital Period
UTC large
Height (km)
Speed (km/s)
/
Latitude / Longitude
Inclination (degrees)
Orbital Period (minutes)
Azimuth
Elevation
Range (km)
Doppler Factor
iOS Compass Heading
iOS Angle

Next 30 passes for location: Hong Kong

Rise time Rise Azimuth (degrees) Set time Set Azimuth (degrees) Duration Max altitude (degrees)

No matching passes for this satellites